Lexington Weather

Lexington, Massachusetts, USA

39°F
1/28/2023 9:39pm 
  • Lexington Conditions: Clear
  • Temperature: 38.7°F / 3.7°CColder 0.1°F than last hour.
  • Dew Point: 27.5°FIncreased 0.5°Fsince last hour.
  • Relative Humidity: 64%Increased 2.0% since last hour.
  • Wind: Calm, 10-min avg: Calm, gust: None
  • Barometer: 30.25 in Steady
  • Visibility: 10 miles
  • Rain Today: 0.00 in
  •   

Regional Weather Roundup
for Boston, MA

        
000
ASUS41 KBOX 282310
RWRBOX

REGIONAL WEATHER ROUNDUP
NATIONAL WEATHER SERVICE BOSTON/NORTON MA
600 PM EST SAT JAN 28 2023

NOTE:  "FAIR" INDICATES FEW OR NO CLOUDS BELOW 12,000 FEET WITH NO 
SIGNIFICANT WEATHER AND/OR OBSTRUCTIONS TO VISIBILITY.

MAZALL-290000-
EASTERN MASSACHUSETTS
  
CITY           SKY/WX    TMP DP  RH WIND       PRES   REMARKS
BOSTON         PTCLDY    47  22  37 W13       30.24R                  
BEVERLY        CLEAR     43  20  39 W6        30.22R                  
LAWRENCE       CLEAR     40  23  50 SW5       30.24R                  
BEDFORD        CLEAR     43  21  41 SW5       30.22R                  
NORWOOD        CLEAR     47  23  38 SW5       30.24R                  
MARSHFIELD     CLEAR     43  27  52 CALM      30.24R                  
PLYMOUTH       CLEAR     43  24  47 SW5       30.23R                  
TAUNTON          N/A    N/A N/A N/A MISG      30.24R                  
NEW BEDFORD    CLEAR     45  30  55 SW8       30.25R                  
$$

MAZALL-290000-
CAPE COD AND THE ISLANDS
  
CITY           SKY/WX    TMP DP  RH WIND       PRES   REMARKS
FALMOUTH       CLEAR     43  30  61 W12       30.25R                  
HYANNIS        CLEAR     41  33  73 SW9       30.24R                  
CHATHAM        CLEAR     43  36  76 SW10      30.25R                  
PROVINCETOWN   CLEAR     45  32  60 W7        30.25R                  
NANTUCKET      CLEAR     43  38  82 SW14      30.27R                  
MARTHAS VNYRD  CLEAR     45  34  65 SW10      30.27R                  
$$
 
MAZALL-290000-
CENTRAL AND WESTERN MASSACHUSETTS
  
CITY           SKY/WX    TMP DP  RH WIND       PRES   REMARKS
WORCESTER      CLEAR     39  22  50 W8        30.20R                  
FITCHBURG      CLEAR     37  23  56 CALM      30.22R                  
ORANGE         CLEAR     32  24  72 S3        30.22R                  
SPRINGFIELD    CLEAR     36  22  56 S3        30.21R                  
WESTFIELD      CLEAR     36  23  59 S3        30.22R                  
NORTH ADAMS    CLEAR     32  24  72 SW6       30.22R WCI  26          
PITTSFIELD     PTCLDY    33  22  63 SW6       30.18R WCI  28          
$$
 
RIZALL-290000-
RHODE ISLAND
  
CITY           SKY/WX    TMP DP  RH WIND       PRES   REMARKS
PROVIDENCE     PTCLDY    45  22  40 SW5       30.26R                  
NEWPORT        CLEAR     44  27  51 VRB5      30.25R                  
BLOCK ISLAND   PTCLDY    43  36  76 SW10      30.28R                  
SMITHFIELD     CLEAR     43  22  43 CALM      30.24R                  
WESTERLY       PTCLDY    45  28  51 CALM      30.26R                  
$$
 
CTZALL-290000-
CONNECTICUT
  
CITY           SKY/WX    TMP DP  RH WIND       PRES   REMARKS
BRADLEY INTL   MOCLDY    45  21  38 S6        30.24R                  
HARTFORD       PTCLDY    44  25  47 S5        30.25R                  
BRIDGEPORT     PTCLDY    44  34  67 SW5       30.26R                  
DANBURY        PTCLDY    43  25  49 SW3       30.26R                  
GROTON         PTCLDY    48  25  40 W8        30.26R                  
NEW HAVEN      PTCLDY    46  34  62 S3        30.26R                  
CHESTER        FAIR      45  25  45 CALM      30.25R                  
MERIDEN        PTCLDY    47  22  37 S6        30.25R                  
WILLIMANTIC    PTCLDY    42  24  49 CALM      30.25R                  
OXFORD         PTCLDY    43  23  45 S3        30.25R                  
$$

MEZ002-015-021-024-NHZ003-005-008-011-012-014-VTZ005-008-290000-
NORTHERN NEW ENGLAND
  
CITY           SKY/WX    TMP DP  RH WIND       PRES   REMARKS
PORTLAND ME    PTCLDY    40  22  48 SW5       30.19R                  
BANGOR ME      PTCLDY    38  24  57 SW6       30.14R                  
CONCORD NH     CLEAR     39  20  46 W7        30.20R                  
MANCHESTER NH  PTCLDY    37  24  59 SE3       30.20R                  
NASHUA NH      CLEAR     39  24  55 SW3       30.22R                  
PORTSMOUTH NH  PTCLDY    41  20  44 CALM      30.20R                  
JAFFREY NH     CLEAR     32  24  72 CALM      30.19R                  
KEENE NH       CLEAR     31  26  82 CALM      30.22R                  
BURLINGTON VT  CLOUDY    37  22  54 W10       30.22R WCI  30          
MT. WASHINGTON BLWGSNOW  10  10 100 W63G69      N/A  VSB 0   WCI -19  
$$

NYZ052-076-290000-
EASTERN NEW YORK
  
CITY           SKY/WX    TMP DP  RH WIND       PRES   REMARKS
ALBANY         PTCLDY    39  23  52 CALM      30.24R                  
NEW YORK CITY  MOCLDY    50  22  33 SW7       30.27R                  
$$
 
ANZALL-290000-
MARINE OBSERVATIONS
  
STATION/POSITION TIME  TEMP    WIND        PRES    VSBY  WAVE
                       AIR SEA DIR/SP/G                  HT/PER
                 (UTC) (F)     (DEG/KT/KT) (MB)    (MI)  (FT/S)
BOSTON BUOY      2240      42                N/A           2/11
BUZZARDS BAY     2200   44     250/ 21/ 22 1024.1R
NANTUCKET SOUND  2250   44 42  220/ 14/ 16 1024.6R         2/ 3
MASS BAY-STELLWA 2104   44 42  250/  8/ 10 1020.8R  1 7/8  2/ 5
ISLE OF SHOALS   2200   45     250/ 15/ 17 1021.7R
S OF BLOCK IS    2226      44                N/A           6/ 7
$$

......................KEY.........................
  SKY/WX - SKY CONDITION/PRESENT WEATHER
  TMP    - TEMPERATURE IN FAHRENHEIT
  DWPT   - DEWPOINT IN FAHRENHEIT
  RH     - RELATIVE HUMIDITY IN PERCENT
  WIND   - DIRECTION AND SPEED IN MPH
  PRES   - MEAN SEA LEVEL PRESSURE IN INCHES OF HG
  WCI    - WIND CHILL INDEX
  VSB    - VISIBILITY IN MILES
  HX     - HEAT INDEX
  TC     - TEMPERATURE IN CELSIUS
  VRB    - VARIABLE WIND DIRECTION
  N/A    - NOT AVAILABLE
  
      

Other recent Regional Weather Roundups

Sat Jan 28, 9:10pm EST

Sat Jan 28, 8:10pm EST

Sat Jan 28, 7:10pm EST

Sat Jan 28, 5:10pm EST

Sat Jan 28, 4:10pm EST

Sat Jan 28, 3:10pm EST

Sat Jan 28, 2:10pm EST

Sat Jan 28, 1:10pm EST

Sat Jan 28, 12:10pm EST

Sat Jan 28, 11:10am EST

Sat Jan 28, 10:10am EST

Sat Jan 28, 9:10am EST

Sat Jan 28, 8:10am EST

Sat Jan 28, 7:10am EST

Sat Jan 28, 6:10am EST

Sat Jan 28, 5:10am EST

Sat Jan 28, 4:10am EST

Sat Jan 28, 3:10am EST

Sat Jan 28, 2:10am EST

Sat Jan 28, 1:10am EST

Sat Jan 28, 12:10am EST

Fri Jan 27, 11:10pm EST

Fri Jan 27, 10:10pm EST

Fri Jan 27, 9:10pm EST

Fri Jan 27, 8:10pm EST

Fri Jan 27, 7:10pm EST

Fri Jan 27, 6:10pm EST

Fri Jan 27, 5:10pm EST

Fri Jan 27, 4:10pm EST

Fri Jan 27, 3:10pm EST

Fri Jan 27, 2:10pm EST

Fri Jan 27, 1:10pm EST

Fri Jan 27, 12:10pm EST

Fri Jan 27, 11:10am EST

Fri Jan 27, 10:10am EST

Fri Jan 27, 9:10am EST

Fri Jan 27, 8:10am EST

Fri Jan 27, 7:10am EST

Fri Jan 27, 6:10am EST

Fri Jan 27, 5:10am EST

Fri Jan 27, 4:10am EST

Fri Jan 27, 3:10am EST

Fri Jan 27, 2:10am EST

Fri Jan 27, 1:10am EST

Fri Jan 27, 12:10am EST

Thu Jan 26, 11:10pm EST

Thu Jan 26, 10:10pm EST

Thu Jan 26, 9:10pm EST

Thu Jan 26, 8:10pm EST

Thu Jan 26, 7:10pm EST

Thu Jan 26, 6:10pm EST

Thu Jan 26, 5:10pm EST

Thu Jan 26, 4:10pm EST

Thu Jan 26, 3:10pm EST

Thu Jan 26, 2:10pm EST

Thu Jan 26, 1:10pm EST

Thu Jan 26, 12:10pm EST

Thu Jan 26, 11:10am EST

Thu Jan 26, 10:10am EST

Thu Jan 26, 9:10am EST

Thu Jan 26, 8:10am EST

Thu Jan 26, 7:10am EST

Thu Jan 26, 6:10am EST

Thu Jan 26, 5:10am EST

Thu Jan 26, 4:10am EST

Thu Jan 26, 3:10am EST

Thu Jan 26, 2:10am EST

Thu Jan 26, 1:10am EST

Thu Jan 26, 12:10am EST

Wed Jan 25, 11:10pm EST

Wed Jan 25, 10:10pm EST

Wed Jan 25, 9:10pm EST

Wed Jan 25, 8:10pm EST

Wed Jan 25, 7:10pm EST

Wed Jan 25, 6:10pm EST

Wed Jan 25, 5:10pm EST

Wed Jan 25, 4:10pm EST

Wed Jan 25, 3:10pm EST

Wed Jan 25, 2:10pm EST

Wed Jan 25, 1:10pm EST

Wed Jan 25, 12:10pm EST

Wed Jan 25, 11:10am EST

Wed Jan 25, 10:10am EST

Wed Jan 25, 9:10am EST

Wed Jan 25, 8:10am EST

Wed Jan 25, 7:10am EST

Wed Jan 25, 6:10am EST

Wed Jan 25, 5:10am EST

Wed Jan 25, 4:10am EST

Wed Jan 25, 3:10am EST

Wed Jan 25, 2:10am EST

Wed Jan 25, 1:10am EST

Wed Jan 25, 12:10am EST

Tue Jan 24, 11:10pm EST

Tue Jan 24, 10:10pm EST

Tue Jan 24, 9:10pm EST

Tue Jan 24, 8:10pm EST

Tue Jan 24, 7:10pm EST

Tue Jan 24, 6:10pm EST

Tue Jan 24, 5:10pm EST

Tue Jan 24, 4:10pm EST

Tue Jan 24, 3:10pm EST

Tue Jan 24, 2:10pm EST

Tue Jan 24, 1:10pm EST

Tue Jan 24, 12:10pm EST

Tue Jan 24, 11:10am EST

Tue Jan 24, 10:10am EST

Tue Jan 24, 9:10am EST

Tue Jan 24, 8:10am EST

Tue Jan 24, 7:10am EST

Tue Jan 24, 6:10am EST

Tue Jan 24, 5:10am EST

Tue Jan 24, 4:10am EST

Tue Jan 24, 3:10am EST

Tue Jan 24, 2:10am EST

Tue Jan 24, 1:10am EST

Tue Jan 24, 12:10am EST

Mon Jan 23, 11:10pm EST

Mon Jan 23, 10:10pm EST

Mon Jan 23, 9:10pm EST

Mon Jan 23, 8:10pm EST

Mon Jan 23, 7:10pm EST

Mon Jan 23, 6:10pm EST

Mon Jan 23, 5:10pm EST

Mon Jan 23, 4:10pm EST

Mon Jan 23, 3:10pm EST

Mon Jan 23, 2:10pm EST

Mon Jan 23, 1:10pm EST

Mon Jan 23, 12:10pm EST

Mon Jan 23, 11:10am EST

Mon Jan 23, 10:10am EST

Mon Jan 23, 9:10am EST

Mon Jan 23, 8:10am EST

Mon Jan 23, 7:10am EST

Mon Jan 23, 6:10am EST

Mon Jan 23, 5:10am EST

Mon Jan 23, 4:10am EST

Mon Jan 23, 3:10am EST

Mon Jan 23, 2:10am EST

Mon Jan 23, 1:10am EST

Mon Jan 23, 12:10am EST

Sun Jan 22, 11:10pm EST

Sun Jan 22, 10:10pm EST

Sun Jan 22, 9:10pm EST

Sun Jan 22, 8:10pm EST

Sun Jan 22, 7:10pm EST

Sun Jan 22, 6:10pm EST

Sun Jan 22, 5:10pm EST

Sun Jan 22, 4:10pm EST

Sun Jan 22, 3:10pm EST

Sun Jan 22, 2:10pm EST

Sun Jan 22, 1:10pm EST

Sun Jan 22, 12:10pm EST

Sun Jan 22, 11:10am EST

Sun Jan 22, 10:10am EST

Sun Jan 22, 9:10am EST

Sun Jan 22, 8:10am EST

Sun Jan 22, 7:10am EST

Sun Jan 22, 6:10am EST

Sun Jan 22, 5:10am EST

Sun Jan 22, 4:10am EST

Sun Jan 22, 3:10am EST

Sun Jan 22, 2:10am EST

Sun Jan 22, 1:10am EST

Sun Jan 22, 12:10am EST

Sat Jan 21, 11:10pm EST

Sat Jan 21, 10:10pm EST